Tracking 31027 objects as of 19-Jul-2025
HD Live streaming from Space Station
objects crossing your sky now

COSMOS 413

Track COSMOS 413 now!
10-day predictions
COSMOS 413 is classified as:


NORAD ID: 5212
Int'l Code: 1971-041C
Perigee: 1,480.4 km
Apogee: 1,514.6 km
Inclination: 74.0 °
Period: 115.8 minutes
Semi major axis: 7868 km
RCS: 0.726 m2 (medium)
Launch date: May 7, 1971
Source: Commonwealth of Independent States (former USSR) (CIS)
Launch site: PLESETSK MISSILE AND SPACE COMPLEX (PKMTR)
Your satellite tracking list
Your tracking list is empty




NASA's NSSDC Master Catalog

Two Line Element Set (TLE):
1 05212U 71041C   25199.86956630 -.00000006  00000-0  70252-4 0  9999
2 05212  74.0174 345.8057 0021760 331.2646 183.0462 12.43847517461027
Source of the keplerian elements: AFSPC